NOAA 16 DEB, 41288

Orbit data source: Space-Track

NOAA 16 DEB, 41288 is space debris in SSO originally from a launch on Thu, 21 Sep 2000 UTC launched from the Air Force Western Test Range (AFWTR). Debris objects in space refer to the collection of defunct objects orbiting the Earth. Examples of debris include non-operational satellites, rocket bodies, and fragments generated from explosions, collisions, or faulty payload assembly.

Loading next visibility...
Identifier
41288, 2000-055GQ
Orbit
SSO
Country
Flag of USUS
Related business
Manufacturer
Unknown
Mission
Spacecraft
Bus & Motor
Unknown
Mass
Unknown
Launch date (UTC)
2000-09-21 (25 years ago)
Launch vehicle
Unknown
Launch site
Air Force Western Test Range (AFWTR)
Object type
Payload
Rocket body
Debris
Shape & HBR
Unknown shape, 0.1 m
Radar Cross Section
Small (<0.1 m²)

Expand to show TLE details & history
Last TLE update: 2 days ago

TLE from 2 days ago
0 NOAA 16 DEB
1 41288U 00055GQ  26035.24276941  .00011195  00000-0  38808-2 0  9990
2 41288  98.9003 139.4954 0026922 246.5070 113.3284 14.35567071521250
Epoch: 2026-02-04T05:49Z
TLE epoch observation values (Epoch: 2026-02-04T05:49:35.277Z)
Latitude
-0.00006°
Longitude
-82.31373°
Altitude
783.781 km
Speed
7.458 km/s
True Right ascension
09h 17m 58s
True Declination
0° 00' 00"
Sunlit
Object was in full shadow at epoch
Visualization orbit readout
Latitude
Unknown
Longitude
Unknown
Altitude
Unknown
Speed
Unknown
Apparent Right ascension
Unknown
Apparent Declination
Unknown
Sunlit
N/A
Visualization observer readout
Local Sidereal Time
22:10:12
Azimuth
Unknown
Elevation
Unknown
Doppler factor
Unknown
Orbital elements
Apogee altitude
789.575 km
Perigee altitude
751.084 km
Semi-major axis
7,148.467 km
Eccentricity
0.00269
Inclination
98.9003°
RAAN
139.4954°
Arg. of periapsis
246.507°
True anomaly
113.61131°
Mean anomaly
113.3284°
Eccentric anomaly
113.46989°
Mean motion
3.59107 °/min
Orbital period
100.25 mins
BSTAR
0.0038808
Loading maneuver chart data...
Computing Atmospheric mass density...
Loading historical data...
Loading historical data...
Loading historical data...
Loading historical data...
Loading historical data...
Loading historical data...
Loading historical data...

Documentation

Showing up to 5 results
|